SL-16 DEB, 22609

Orbit data source: Space-Track

SL-16 DEB, 22609 is space debris in LEO originally from a launch on Fri, 26 Mar 1993 UTC launched from the Tyuratam Missile And Space Complex (TTMTR). Debris objects in space refer to the collection of defunct objects orbiting the Earth. Examples of debris include non-operational satellites, rocket bodies, and fragments generated from explosions, collisions, or faulty payload assembly.

Loading next visibility...
Identifier
22609, 1993-016T
Orbit
LEO
Country
Flag of CISCIS
Related business
Manufacturer
Unknown
Mission
Spacecraft
Bus & Motor
Unknown
Mass
Unknown
Launch date (UTC)
1993-03-26 (33 years ago)
Launch vehicle
Unknown
Launch site
Tyuratam Missile And Space Complex (TTMTR)
Object type
Payload
Rocket body
Debris
Shape & HBR
Unknown shape, 0.1 m
Radar Cross Section
Small (<0.1 m²)

Expand to show TLE details & history
Last TLE update: 10 hours ago

TLE from 10 hours ago
0 SL-16 DEB
1 22609U 93016T   25289.16430336  .00000422  00000-0  35720-3 0  9998
2 22609  70.9914 245.5871 0134814 167.5144 220.3201 13.89098061646205
Epoch: 2025-10-16T03:56Z
TLE epoch observation values (Epoch: 2025-10-16T03:56:35.810Z)
Latitude
25.31511°
Longitude
170.83943°
Altitude
1,010.018 km
Speed
7.311 km/s
True Right ascension
16h 59m 39s
True Declination
25° 11' 13"
Sunlit
Object was in daylight at epoch
Visualization orbit readout
Latitude
Unknown
Longitude
Unknown
Altitude
Unknown
Speed
Unknown
Apparent Right ascension
Unknown
Apparent Declination
Unknown
Sunlit
N/A
Visualization observer readout
Local Sidereal Time
08:58:15
Azimuth
Unknown
Elevation
Unknown
Doppler factor
Unknown
Orbital elements
Apogee altitude
1,028.264 km
Perigee altitude
831.224 km
Semi-major axis
7,307.881 km
Eccentricity
0.01348
Inclination
70.9914°
RAAN
245.5871°
Arg. of periapsis
167.5144°
True anomaly
219.33323°
Mean anomaly
220.3201°
Eccentric anomaly
219.8254°
Mean motion
3.47421 °/min
Orbital period
103.62 mins
BSTAR
0.0003572
Loading maneuver chart data...
Computing Atmospheric mass density...
Loading historical data...
Loading historical data...
Loading historical data...
Loading historical data...
Loading historical data...
Loading historical data...
Loading historical data...

Documentation

Showing up to 5 results
|